Beidou DW 31

operational
NORAD ID: 43246 Int'l Des: 2018-029 Owner: CNSA Country: CN Constellation: BeiDou
MEOCIRCULAR

关于 Beidou DW 31

正在加载描述...

实时位置

正在加载3D地球...

即将过境

高度历史

Altitude vs Time

uPlot chart will show altitude changes over time

两行轨道根数

1 43246U 18029B 26070.15695869 -.00000040 00000-0 00000+0 0 9997
2 43246 54.2796 303.4048 0005207 25.3248 334.7506 1.86229238 54057
Epoch: Mar 11, 2026 • Age: 73 hours

当前状态

高度 21536.6 km
速度 3.78 km/s
星下点 28.43°N, 91.61°W
发射日期 Mar 29, 2018
运行时间 7.9 years
类型 navigation

发射组

Unknown Vehicle • BeiDou Launch 28 • 2 satellites

技术详情

分类 Payload
质量 1014.00 kg
干质量 850.00 kg
总质量 1014.00 kg
长度 2.20 m
直径 1.70 m
跨度 10.00 m
形状 Box + 2 Pan
制造商 SECM
平台类型 BD-3M2
阶段状态 In Orbit
所有者/国家 CNSA/CN

大型星座

Loading constellations...